Vorticity
nan nan nan nan nan nan nan nan nan nan nan nan nan nan nan nan nan nan nan nan nan nan nan nan nan nan nan nan nan nan nan nan nan nan nan nan nan nan nan nan nan nan nan nan nan nan nan nan nan nan nan nan nan nan nan nan nan nan nan nan nan nan nan nan nan nan nan nan nan nan nan nan nan nan nan nan nan nan nan nan nan nan nan nan nan nan
nan 17 21 19 9 2 12 16 8 4 5 5 7 9 11 10 9 11 14 14 12 10 10 14 18 21 22 23 24 20 14 12 11 10 10 9 9 9 9 8 8 8 8 7 7 7 7 7 7 7 7 8 8 9 8 8 8 7 6 5 5 5 6 8 11 12 11 9 8 8 10 11 12 13 14 13 11 9 8 7 7 7 7 7 6 nan
nan 13 17 17 11 5 12 16 11 10 8 6 9 12 11 7 6 8 10 12 12 12 12 14 16 17 17 20 24 19 14 12 11 10 10 9 9 9 9 9 8 8 8 7 7 6 6 6 7 7 7 8 9 9 10 10 9 8 8 7 6 6 7 9 10 11 10 8 5 4 4 6 8 12 13 11 9 7 6 5 5 4 4 4 4 nan
nan 10 11 11 12 9 11 15 13 13 10 10 14 15 9 4 6 8 11 12 11 11 13 14 13 12 12 17 21 21 16 12 11 10 10 9 9 9 9 9 8 8 7 7 7 6 6 6 7 7 8 8 9 10 11 11 11 11 10 9 9 9 9 10 9 8 7 6 5 5 6 8 9 10 9 8 7 6 6 5 4 3 3 3 4 nan
nan 9 9 8 10 9 10 13 13 12 12 13 13 12 7 5 8 9 11 12 11 10 10 11 10 9 10 16 22 22 17 13 11 10 10 9 9 9 9 8 8 8 7 7 7 7 7 7 7 8 8 8 9 10 10 11 12 14 14 14 14 12 10 9 8 6 5 5 6 8 9 10 11 10 8 8 7 7 7 6 5 4 4 4 5 nan
nan 7 8 9 8 8 10 12 11 10 10 11 10 8 7 9 10 11 11 10 9 8 9 9 9 10 12 18 23 21 16 13 11 11 10 10 10 9 8 8 8 7 7 7 7 7 7 7 8 8 8 8 8 8 8 10 12 15 18 19 18 15 11 9 7 6 5 6 7 9 10 11 11 10 11 11 11 11 11 10 9 8 8 8 8 nan
nan 7 7 7 7 9 12 14 12 8 7 7 7 7 8 9 10 11 11 10 8 8 7 8 9 10 12 17 19 18 14 11 9 9 10 10 9 9 9 8 8 7 7 7 7 7 7 8 8 8 8 7 6 6 6 8 11 14 18 20 19 16 11 8 6 5 6 7 7 8 9 9 10 11 12 14 14 15 15 15 16 15 15 15 15 nan
nan 6 6 6 6 8 12 15 14 11 7 6 7 7 7 7 8 9 10 10 10 9 7 7 8 8 9 12 13 12 11 8 6 6 8 8 8 8 9 9 8 8 7 7 7 7 7 8 8 8 7 6 5 5 5 7 9 12 15 17 16 13 9 7 6 6 6 7 8 8 8 9 9 10 12 13 13 14 16 17 18 19 20 20 20 nan
nan 5 5 5 5 6 9 12 13 12 9 8 9 9 7 6 6 7 8 9 9 9 9 8 7 6 7 8 9 11 11 8 8 9 9 9 10 11 11 9 8 8 8 8 7 7 7 7 8 7 6 5 5 5 4 5 7 9 11 12 12 10 8 7 6 6 7 7 7 8 8 8 9 9 10 10 10 11 12 13 14 15 16 18 18 nan
nan 7 5 4 6 8 10 11 11 12 10 10 11 10 10 9 6 5 6 7 8 9 11 11 9 6 5 6 9 11 12 11 12 13 12 13 15 13 10 9 10 11 11 9 8 7 7 7 7 7 5 5 5 5 5 6 6 7 8 8 8 8 7 7 7 7 7 7 7 7 7 8 8 8 8 8 9 9 8 8 8 8 10 12 12 nan
nan 8 5 4 6 9 11 11 11 13 12 10 10 10 10 10 9 9 6 4 5 7 10 11 10 8 6 6 8 10 10 10 11 12 13 13 12 10 7 8 12 15 13 10 9 8 8 8 7 6 5 5 5 5 5 6 7 7 7 7 7 7 7 7 7 7 7 7 7 7 7 7 7 7 8 8 8 8 8 7 6 6 6 7 8 nan
nan 8 7 7 8 8 7 8 10 13 12 9 8 9 10 10 10 12 10 6 5 5 6 7 9 10 10 9 8 8 9 9 9 9 9 9 7 5 4 7 9 11 10 9 9 10 10 9 7 5 5 6 6 6 6 7 8 8 7 6 6 7 7 8 8 7 7 7 7 7 7 7 7 7 7 7 8 8 8 8 8 7 7 6 6 nan
nan 10 11 10 9 7 6 7 8 10 12 12 10 8 8 8 9 11 13 12 9 6 5 6 6 7 10 11 11 10 10 9 9 9 9 8 6 5 5 6 7 7 8 8 10 13 15 12 9 7 6 7 8 8 7 8 9 8 7 7 7 7 7 8 8 8 7 7 7 7 8 8 7 7 6 6 7 7 8 8 9 9 9 8 8 nan
nan 9 11 11 9 8 8 9 9 9 9 10 9 8 9 10 10 9 11 11 10 9 10 9 5 4 6 9 11 12 11 9 8 9 9 9 8 8 8 9 8 8 8 8 10 13 14 11 12 16 13 8 8 8 8 8 9 8 7 7 7 7 7 8 8 8 7 8 8 8 8 8 8 7 6 6 6 6 6 7 8 9 9 10 9 nan
nan 10 9 8 8 8 10 12 11 9 6 5 7 8 12 13 11 9 9 8 7 7 8 8 5 4 6 8 9 12 11 9 9 9 10 8 8 9 10 10 10 10 9 9 11 12 11 9 12 18 20 14 10 9 9 10 11 9 7 7 7 7 8 8 7 7 7 8 8 8 9 8 8 7 6 6 6 6 6 7 7 8 9 9 9 nan
nan 12 10 8 7 6 9 12 11 11 8 5 8 10 11 11 9 8 8 7 5 6 5 4 2 2 6 9 11 12 12 10 9 11 10 7 6 8 10 11 10 9 9 10 10 10 9 9 13 17 22 22 16 13 11 11 12 9 7 7 7 8 8 8 8 8 7 8 8 8 8 8 7 7 6 6 6 6 6 7 7 7 8 8 9 nan
nan 11 11 10 9 7 8 10 12 10 8 7 8 11 11 10 7 6 6 6 5 6 6 5 3 3 6 8 11 13 12 10 10 11 10 8 7 8 10 12 10 9 9 9 10 10 9 9 11 16 24 27 21 14 11 12 11 9 7 7 8 8 9 9 9 8 8 8 8 8 7 7 7 7 6 6 7 7 7 7 7 7 7 8 8 nan
nan 10 11 10 9 10 10 8 8 10 10 8 8 10 11 10 9 8 7 7 8 7 8 6 4 5 8 11 14 15 11 9 10 10 9 8 7 8 10 12 12 11 10 9 9 10 10 11 12 15 27 30 20 14 11 11 10 9 7 7 8 9 9 9 9 8 8 7 7 7 6 6 6 6 6 7 7 7 7 7 7 7 7 7 7 nan
nan 10 10 8 8 11 12 11 9 9 8 8 10 10 9 9 9 8 8 10 9 9 8 6 5 5 6 13 19 19 12 8 9 9 9 8 8 8 10 12 13 12 11 10 8 9 10 13 18 22 27 25 18 14 11 10 10 8 7 7 8 9 9 9 9 8 8 7 6 6 6 6 6 6 6 7 7 7 6 6 6 6 6 6 6 nan
nan 8 7 8 10 11 11 11 10 9 8 9 9 9 9 10 9 7 8 9 8 7 8 9 8 6 7 13 18 18 12 7 7 8 10 9 9 9 11 12 11 10 9 9 8 9 10 13 18 25 26 21 17 13 10 9 9 8 7 7 8 8 8 8 8 8 7 7 6 6 6 6 6 6 6 6 6 7 6 6 6 6 5 5 5 nan
nan 8 6 7 8 9 11 14 14 12 10 8 7 7 8 9 9 8 8 8 9 10 10 9 8 6 9 16 18 18 11 4 3 3 7 9 10 10 12 12 12 11 9 7 7 9 11 12 15 23 28 25 18 13 10 9 9 8 8 8 8 8 8 8 8 7 7 6 6 6 6 6 6 6 6 7 6 6 6 6 5 5 5 4 4 nan
nan 11 13 8 5 7 14 18 17 13 10 6 2 3 8 10 9 7 7 8 11 12 10 7 6 8 14 19 21 19 10 3 3 3 7 9 10 10 10 12 13 12 9 6 6 9 12 13 16 24 31 28 17 12 10 9 9 9 8 8 8 8 8 8 7 7 7 7 6 6 6 6 6 6 6 6 6 6 6 5 5 5 4 4 4 nan
nan 11 14 9 6 7 14 17 16 13 10 6 3 1 7 13 11 10 8 8 8 7 7 9 11 13 16 20 20 17 9 4 4 7 10 11 9 8 9 11 12 11 9 7 8 11 14 15 17 24 35 31 16 10 10 9 9 9 9 8 8 8 7 7 7 7 7 7 6 6 6 6 6 6 6 6 6 6 6 5 5 4 4 4 4 nan
nan 9 11 9 7 6 11 16 14 12 9 6 4 6 10 13 14 16 15 13 10 9 9 9 9 9 12 16 15 14 9 5 6 9 10 11 11 12 12 12 10 8 7 8 10 12 12 12 15 21 36 37 19 11 9 9 10 10 9 9 8 8 7 7 7 7 7 7 7 7 7 6 6 6 6 6 6 6 5 5 5 4 4 4 4 nan
nan 8 11 15 13 8 10 16 15 12 7 4 5 8 11 14 15 16 17 16 15 14 12 7 5 4 8 11 11 11 9 6 7 10 10 11 12 13 12 11 9 8 7 7 10 12 11 9 11 18 32 39 29 16 9 10 10 10 9 9 8 8 7 7 7 7 7 7 7 7 7 7 6 6 6 6 5 5 5 5 4 4 4 5 5 nan
nan 9 17 23 19 14 13 17 16 13 3 -2 2 7 12 12 11 11 11 11 12 12 8 3 2 3 7 10 11 12 10 6 7 10 10 11 12 11 9 10 10 10 8 8 10 12 12 8 8 12 25 36 35 24 15 11 11 10 10 9 8 8 7 7 7 7 7 7 7 7 7 6 6 6 6 5 5 5 5 5 4 4 4 5 7 nan
nan 9 21 26 19 14 14 17 17 15 4 -3 1 5 7 7 7 7 5 7 9 8 3 1 1 3 8 11 12 13 11 6 5 8 11 12 11 10 9 10 11 10 8 7 9 11 11 8 7 8 13 24 34 38 28 14 12 11 11 10 9 8 8 8 7 7 7 7 7 7 6 6 7 7 6 6 6 6 6 7 7 7 6 7 9 nan
nan 11 20 26 18 14 15 16 16 12 6 5 5 -1 -5 -0 4 5 4 6 8 7 5 4 2 4 8 11 11 13 11 8 6 8 10 11 11 11 11 10 9 8 6 5 6 7 8 8 7 7 9 17 30 41 36 20 13 11 11 10 9 8 8 7 7 7 7 7 7 8 8 8 8 9 9 9 9 9 9 10 10 10 9 8 9 nan
nan 17 21 25 18 14 12 13 13 12 9 6 1 -9 -14 -6 3 5 7 8 8 7 7 5 4 6 9 11 11 13 11 10 9 9 9 9 10 12 13 10 8 7 5 5 4 4 4 7 7 9 8 14 24 32 32 22 12 11 12 11 7 7 8 8 8 8 8 9 9 10 11 11 11 12 12 12 12 12 12 12 12 10 11 11 11 nan
nan 20 22 23 17 11 8 10 13 16 14 5 -5 -16 -17 -6 4 9 13 11 9 7 8 7 6 6 7 8 8 11 12 13 11 10 7 6 9 12 13 11 9 7 3 3 4 5 5 6 7 8 9 13 17 20 21 17 12 12 14 12 7 8 11 11 11 11 12 12 13 13 14 13 13 13 12 12 12 11 11 10 8 7 9 11 11 nan
nan 17 18 19 13 8 7 10 14 18 16 4 -7 -15 -12 -2 7 13 14 12 8 8 8 8 8 7 4 3 5 8 14 17 14 8 5 6 10 14 13 10 9 7 3 3 5 6 6 6 7 8 10 13 13 14 15 14 13 12 13 11 11 15 17 12 12 13 14 14 15 15 14 13 12 11 10 9 9 8 8 7 6 4 7 10 10 nan
nan 12 14 14 11 9 9 11 13 15 12 4 -2 -5 -2 4 9 13 12 10 8 9 9 10 10 9 5 2 5 7 15 21 18 9 3 4 10 16 14 10 9 6 5 7 10 9 8 7 8 8 10 11 11 11 12 14 14 13 11 9 11 18 16 9 9 9 12 14 13 12 11 11 9 8 8 7 7 7 7 7 6 5 7 10 11 nan
nan 10 13 13 12 11 11 12 12 12 9 6 4 3 5 8 11 11 10 9 9 9 9 10 9 8 6 3 4 7 16 24 23 14 0 -1 8 14 15 12 10 7 5 6 12 13 13 13 12 10 10 10 9 9 11 12 13 13 10 9 10 13 8 4 4 5 8 9 7 7 7 6 7 7 7 7 7 7 7 7 6 5 6 9 11 nan
nan 11 12 11 11 12 13 13 12 10 9 8 7 6 7 10 11 11 9 9 10 10 9 9 9 8 3 0 3 7 16 26 27 15 -2 -3 7 15 16 11 9 7 4 4 8 11 14 16 14 11 9 8 8 8 10 11 11 12 11 12 11 10 6 4 4 5 6 5 4 5 5 5 7 7 6 7 7 7 7 7 6 5 4 6 8 nan
nan 11 11 10 10 11 13 13 11 10 9 8 8 8 10 11 12 12 10 10 11 12 14 13 12 11 5 2 3 6 14 26 26 12 -2 -3 6 13 15 12 10 8 5 5 6 8 12 16 15 10 7 6 6 7 9 11 11 11 13 13 12 11 10 9 9 8 6 6 6 7 6 7 8 8 9 9 9 8 7 7 7 6 6 6 5 nan
nan 11 10 10 10 11 11 11 10 9 7 6 8 10 12 13 13 13 12 11 11 12 14 17 18 18 16 12 10 10 16 24 23 12 -1 -2 5 9 12 14 13 9 5 5 7 9 12 14 14 10 5 3 4 6 9 10 11 11 12 11 11 11 12 12 12 11 9 9 9 8 9 9 9 10 13 13 10 8 7 7 7 8 8 7 6 nan
nan 10 10 10 10 10 9 8 8 8 6 6 10 12 14 14 14 14 14 14 14 13 11 12 15 19 26 27 25 24 25 25 22 14 2 -1 4 7 11 17 17 10 5 7 9 10 12 12 11 7 3 4 7 9 10 9 9 10 10 10 10 9 10 12 13 12 12 12 10 10 10 10 11 11 14 13 9 7 9 9 9 10 11 10 9 nan
nan 10 9 9 9 10 9 8 9 9 9 10 11 12 13 15 16 15 14 14 15 14 12 10 11 13 22 30 33 34 33 29 22 14 5 1 4 8 13 17 17 10 9 12 13 12 11 9 7 5 3 5 10 14 12 9 9 8 8 9 9 9 9 11 12 12 13 12 11 11 10 9 10 10 10 9 8 9 10 11 14 16 15 13 13 nan
nan 10 10 10 9 9 9 10 10 10 11 13 13 13 12 11 11 12 13 13 12 13 15 15 12 10 12 19 24 28 28 24 18 12 6 4 5 10 15 16 13 9 10 14 16 16 12 8 7 6 6 6 9 10 10 11 10 10 8 5 5 7 9 11 11 12 11 11 10 8 6 7 9 9 9 9 10 10 10 11 13 14 13 13 15 nan
nan 10 11 11 9 10 12 12 11 11 12 12 12 10 8 6 5 6 9 11 10 10 10 11 11 8 7 8 12 15 18 19 17 13 8 8 11 14 15 15 11 10 10 12 15 16 12 9 10 10 8 8 10 10 10 12 13 13 7 2 5 8 10 9 10 10 11 12 10 8 8 9 10 10 10 10 10 10 10 10 10 10 10 10 10 nan
nan 9 9 9 9 11 14 15 14 14 13 10 7 6 6 6 5 5 7 7 7 6 4 3 5 6 6 6 7 9 14 17 18 16 16 17 17 15 14 14 12 11 10 11 13 14 13 12 11 10 10 13 13 12 11 14 15 10 1 3 10 14 12 9 8 8 11 12 12 12 12 10 9 9 10 10 9 10 10 10 10 9 9 11 11 nan
nan 6 7 8 10 13 16 17 16 13 10 7 8 8 7 6 7 8 8 7 7 8 7 5 5 4 2 2 3 5 10 14 17 19 21 20 19 16 14 13 12 12 11 11 11 12 13 15 13 12 13 12 10 8 12 15 13 8 4 8 12 10 7 5 6 9 11 11 11 13 10 7 7 8 9 9 9 10 12 12 11 10 9 10 11 nan
nan 8 10 12 14 15 16 12 9 7 6 7 8 9 9 9 11 12 9 8 10 11 9 7 7 6 5 4 3 3 5 10 15 19 20 21 20 17 16 14 14 12 10 9 9 9 12 14 14 15 15 12 10 12 12 9 9 8 11 12 7 1 2 7 9 11 12 11 9 9 8 8 9 9 9 9 10 10 11 12 11 10 10 10 10 nan
nan 11 12 12 12 12 10 9 8 9 9 8 8 10 12 14 13 9 6 8 10 9 7 7 7 7 6 6 5 5 4 4 6 11 15 20 22 22 18 14 13 13 14 12 9 7 9 11 12 13 14 13 12 12 10 9 9 9 11 10 8 7 11 15 13 8 8 9 8 8 9 9 9 10 10 10 10 11 11 10 9 9 10 11 11 nan
nan 12 12 11 12 12 11 10 10 10 11 11 11 11 12 13 10 6 9 12 11 10 8 7 5 4 5 8 8 6 5 4 3 3 4 8 13 16 15 13 13 14 16 16 15 14 11 9 9 11 13 15 15 14 11 10 10 10 9 8 7 10 16 18 15 10 9 9 8 8 9 10 10 11 11 10 10 10 11 11 10 9 9 10 11 nan
nan 13 11 11 13 13 11 9 9 10 12 13 11 10 11 11 10 12 14 12 9 8 7 6 7 10 12 10 8 6 8 8 7 6 4 2 2 5 10 13 15 16 15 16 19 21 19 15 13 9 8 10 12 15 14 12 10 9 9 8 7 9 12 12 12 12 11 9 8 8 8 10 12 12 11 10 9 10 11 12 11 10 9 9 10 nan
nan 12 10 11 12 12 11 10 11 11 12 11 10 10 12 12 13 13 12 11 9 8 8 9 12 16 15 9 8 9 11 9 8 8 8 7 6 6 7 9 11 15 17 16 17 19 21 22 19 14 9 7 8 10 13 14 13 11 9 8 9 9 8 8 9 10 10 10 9 7 8 10 11 12 11 10 10 11 11 12 11 11 11 10 10 nan
nan 10 9 10 11 11 11 11 12 12 11 10 10 10 13 16 16 12 10 11 8 8 8 11 14 15 12 10 11 13 13 9 7 8 8 8 7 7 7 8 7 8 10 12 12 12 13 17 20 22 18 13 11 11 11 11 11 11 10 10 10 9 9 9 9 9 9 10 10 9 9 9 10 10 10 10 11 11 11 10 10 10 11 11 11 nan
nan 10 10 10 11 11 11 11 12 13 11 10 9 10 13 16 14 7 8 10 7 8 12 15 13 11 9 10 13 14 11 8 7 8 8 8 8 9 9 8 8 6 4 2 2 2 2 3 9 18 26 27 23 17 11 9 10 10 11 11 10 9 9 9 9 8 9 10 10 9 10 10 11 10 11 12 11 10 10 9 9 9 10 11 11 nan
nan 13 12 11 11 11 11 11 11 11 11 10 9 9 10 10 9 9 11 10 10 12 15 14 12 10 10 11 12 11 8 7 8 9 9 9 11 12 11 9 8 5 2 0 0 -0 -2 -5 -4 0 15 29 31 25 14 10 8 8 9 10 10 10 9 9 9 9 10 10 9 8 10 11 11 12 13 13 12 11 10 10 9 8 8 11 12 nan
nan nan nan nan nan nan nan nan nan nan nan nan nan nan nan nan nan nan nan nan nan nan nan nan nan nan nan nan nan nan nan nan nan nan nan nan nan nan nan nan nan nan nan nan nan nan nan nan nan nan nan nan nan nan nan nan nan nan nan nan nan nan nan nan nan nan nan nan nan nan nan nan nan nan nan nan nan nan nan nan nan nan nan nan nan nan
CAPE
nan nan nan nan nan nan nan nan nan nan nan nan nan nan nan nan nan nan nan nan nan nan nan nan nan nan nan nan nan nan nan nan nan nan nan nan nan nan nan nan nan nan nan nan nan nan nan nan nan nan nan nan nan nan nan nan nan nan nan 1 1 2 5 11 11 20 17 12 11 11 12 10 6 6 3 4 3 3 4 2 2 0 3 7 7 16
nan nan nan nan nan nan nan nan nan nan nan nan nan nan nan nan nan nan nan nan nan nan nan nan nan nan nan nan nan nan nan nan nan nan nan nan nan nan nan nan nan nan nan nan nan nan nan nan nan nan nan nan nan nan nan nan nan nan nan 1 1 4 8 17 17 22 20 16 13 13 6 0 nan nan 0 2 3 3 3 1 1 1 2 12 12 21
nan nan nan nan nan nan nan nan nan nan nan nan nan nan nan nan nan nan nan nan nan nan nan nan nan nan nan nan nan nan nan nan nan nan nan nan nan nan nan nan nan nan nan nan nan nan nan nan nan nan nan nan nan nan nan nan nan nan nan 1 1 7 11 19 19 19 18 11 5 5 0 0 nan nan nan 0 4 4 3 3 3 3 6 16 16 33
nan nan nan nan nan nan nan nan nan nan nan nan nan nan nan nan nan nan nan nan nan nan nan nan nan nan nan nan nan nan nan nan nan nan nan nan nan nan nan nan nan nan nan nan nan nan nan nan nan nan nan nan nan nan nan nan nan nan nan 0 0 4 9 14 14 9 7 2 nan nan nan nan 0 0 3 4 6 6 8 7 7 11 19 24 24 42
nan nan nan nan nan nan nan nan nan nan nan nan nan nan nan nan nan nan nan nan nan nan nan nan nan nan nan nan nan nan nan nan nan nan nan nan nan nan nan nan nan nan nan nan nan nan nan nan nan nan nan nan nan nan nan nan nan nan nan nan nan 0 3 1 1 nan nan nan nan nan nan nan 3 3 5 7 8 8 12 16 16 23 31 40 40 50
nan nan nan nan nan nan nan nan nan nan nan nan nan nan nan nan nan nan nan nan nan nan nan nan nan nan nan nan nan nan nan nan nan nan nan nan nan nan nan nan nan nan nan nan nan nan nan nan nan nan nan nan nan nan nan nan nan nan nan nan nan nan nan nan nan nan nan nan nan nan nan nan 1 1 3 5 9 9 16 21 21 28 38 43 43 54
nan nan nan nan nan nan nan nan nan nan nan nan nan nan nan nan nan nan nan nan nan nan nan nan nan nan nan nan nan nan nan nan nan nan nan nan nan nan nan nan nan nan nan nan nan nan nan nan nan nan nan nan nan nan nan nan nan nan nan nan nan nan nan nan nan nan nan nan nan nan nan nan nan nan nan 1 9 9 17 23 23 32 39 47 47 53
nan nan nan nan nan nan nan nan nan nan nan nan nan nan nan nan nan nan nan nan nan nan nan nan nan nan nan nan nan nan nan nan nan nan nan nan nan nan nan nan nan 0 0 0 0 nan nan nan nan nan nan nan nan nan nan nan nan nan nan nan nan nan nan nan nan nan nan nan nan nan nan nan nan nan nan nan nan nan 3 15 15 28 36 40 40 46
nan nan nan nan nan nan nan nan nan nan nan nan nan nan nan nan nan nan nan nan nan nan nan nan nan nan nan nan nan nan nan nan nan nan nan nan nan nan nan 0 0 0 0 1 1 1 0 nan nan nan nan nan nan nan nan nan nan nan nan nan nan nan nan nan nan nan nan nan nan nan nan nan nan nan nan nan nan nan 0 3 3 8 10 12 12 10
nan nan nan nan nan nan nan nan nan nan nan nan nan nan nan nan nan nan nan nan nan nan nan nan nan nan nan nan nan nan nan nan nan nan nan nan nan nan nan nan nan nan nan 0 0 1 0 nan nan nan nan nan nan nan nan nan nan nan nan nan nan nan nan nan nan nan nan nan nan nan nan nan nan nan nan nan nan nan nan nan nan 0 2 1 1 0
nan nan nan nan nan nan nan nan nan nan nan nan nan nan nan nan nan nan nan nan nan nan nan nan nan nan nan nan nan nan nan nan nan nan nan nan nan nan nan nan nan nan nan nan nan nan nan nan nan nan nan nan nan nan nan nan nan nan nan nan nan nan nan nan nan nan nan nan nan nan nan nan nan nan nan nan nan nan nan nan nan nan 0 0 0 1
nan nan nan nan nan nan nan nan nan nan nan nan nan nan nan nan nan nan nan nan nan nan nan nan nan nan nan nan nan nan nan nan nan nan nan nan nan nan nan nan nan nan nan nan nan nan nan nan nan nan nan nan nan nan nan nan nan nan nan nan nan nan nan nan nan nan nan nan nan nan nan nan nan nan nan nan nan nan nan nan nan nan nan nan nan nan
nan nan nan nan nan nan nan nan nan nan nan nan nan nan nan nan nan nan nan nan nan nan nan nan nan nan nan nan nan nan nan nan nan nan nan nan nan nan nan nan nan nan nan nan nan nan nan nan nan nan nan nan nan nan nan nan nan nan nan nan nan nan nan nan nan nan nan nan nan nan nan nan nan nan nan nan nan nan nan nan nan nan nan nan nan nan
nan nan nan nan nan nan nan nan nan nan nan nan nan nan nan nan nan nan nan nan nan nan nan nan nan nan nan nan nan nan nan nan nan nan nan nan nan nan nan nan nan nan nan nan nan nan nan nan nan nan nan nan nan nan nan nan nan nan nan nan nan nan nan nan nan nan nan nan nan nan nan nan nan nan nan nan nan nan nan nan nan nan nan nan nan nan
nan nan nan nan nan nan nan nan nan nan nan nan nan nan nan nan nan nan nan nan nan nan nan nan nan nan nan nan nan nan nan nan nan nan nan nan nan nan nan nan nan nan nan nan nan nan nan nan nan nan nan nan nan nan nan nan nan nan nan nan nan nan nan nan nan nan nan nan nan nan nan nan nan nan nan nan nan nan nan nan nan nan nan nan nan nan
nan nan nan nan nan nan nan nan nan nan nan nan nan nan nan nan nan nan nan nan nan nan nan nan nan nan nan nan nan nan nan nan nan nan nan nan nan nan nan nan nan nan nan nan nan nan nan nan nan nan nan nan nan nan nan nan nan nan nan nan nan nan nan nan nan nan nan nan nan nan nan nan nan nan nan nan nan nan nan nan nan nan nan nan nan nan
nan nan nan nan nan nan nan nan nan nan nan nan nan nan nan nan nan nan nan nan nan nan nan nan nan nan nan nan nan nan nan nan nan nan nan nan nan nan nan nan nan nan nan nan nan nan nan nan nan nan nan nan nan nan nan nan nan nan nan nan nan nan nan nan nan nan nan nan nan nan nan nan nan nan nan nan nan nan nan nan nan nan nan nan nan nan
nan nan nan nan nan nan nan nan nan nan nan nan nan nan nan nan nan nan nan nan nan nan nan nan nan nan nan nan nan nan nan nan nan nan nan nan nan nan nan nan nan nan nan nan nan nan nan nan nan nan nan nan nan nan nan nan nan nan nan nan nan nan nan nan nan nan nan nan nan nan nan nan nan nan nan nan nan nan nan nan nan nan nan nan nan nan
nan nan nan nan nan nan nan nan nan nan nan nan nan nan nan nan nan nan nan nan nan nan nan nan nan nan nan nan nan nan nan nan nan nan nan nan nan nan nan nan nan nan nan nan nan nan nan nan nan nan nan nan nan nan nan nan nan nan nan nan nan nan nan nan nan nan nan nan nan nan nan nan nan nan nan nan nan nan nan nan nan nan nan nan nan nan
nan nan nan nan nan nan nan nan nan nan nan nan nan nan nan nan nan nan nan nan nan nan nan nan nan nan nan nan nan nan nan nan nan nan nan nan nan nan nan nan nan nan nan nan nan nan nan nan nan nan nan nan nan nan nan nan nan nan nan nan nan nan nan nan nan nan nan nan nan nan nan nan nan nan nan nan nan nan nan nan nan nan nan nan nan nan
nan nan nan nan nan nan nan nan nan nan nan nan nan nan nan nan nan nan nan nan nan nan nan nan nan nan nan nan nan nan nan nan nan nan nan nan nan nan nan nan nan nan nan nan nan nan nan nan nan nan nan nan nan nan nan nan nan nan nan nan nan nan nan nan nan nan nan nan nan nan nan nan nan nan nan nan nan nan nan nan nan nan nan nan nan nan
nan nan nan nan nan nan nan nan nan nan nan nan nan nan nan nan nan nan nan nan nan nan nan nan nan nan nan nan nan nan nan nan nan nan nan nan nan nan nan nan nan nan nan nan nan nan nan nan nan nan nan nan nan nan nan nan nan nan nan nan nan nan nan nan nan nan nan nan nan nan nan nan nan nan nan nan nan nan nan nan nan nan nan nan nan nan
nan nan nan nan nan nan nan nan nan nan nan nan nan nan nan nan nan nan nan nan nan nan nan nan nan nan nan nan nan nan nan nan nan nan nan nan nan nan nan nan nan nan nan nan nan nan nan nan nan nan nan nan nan nan nan nan nan nan nan nan nan nan nan nan nan nan nan nan nan nan nan nan nan nan nan nan nan nan nan nan nan nan nan nan nan nan
nan nan nan nan nan nan nan nan nan nan nan nan nan nan nan nan nan nan nan nan nan nan nan nan nan nan nan nan nan nan nan nan nan nan nan nan nan nan nan nan nan nan nan nan nan nan nan nan nan nan nan nan nan nan nan nan nan nan nan nan nan nan nan nan nan nan nan nan nan nan nan nan nan nan nan nan nan nan nan nan nan nan nan nan nan nan
nan nan nan nan nan nan nan nan nan nan nan nan nan nan nan nan nan nan nan nan nan nan nan nan nan nan nan nan nan nan nan nan nan nan nan nan nan nan nan nan nan nan nan nan nan nan nan nan nan nan nan nan nan nan nan nan nan nan nan nan nan nan nan nan nan nan nan nan nan nan nan nan nan nan nan nan nan nan nan nan nan nan nan nan nan nan
nan nan nan nan nan nan nan nan nan nan nan nan nan nan nan nan nan nan nan nan nan nan nan nan nan nan nan nan nan nan nan nan nan nan nan nan nan nan nan nan nan nan nan nan nan nan nan nan nan nan nan nan nan nan nan nan nan nan nan nan nan nan nan nan nan nan nan nan nan nan nan nan nan nan nan nan nan nan nan nan nan nan nan nan nan nan
nan nan nan nan nan nan nan nan nan nan nan nan nan nan nan nan nan nan nan nan nan nan nan nan nan nan nan nan nan nan nan nan nan nan nan nan nan nan nan nan nan nan nan nan nan nan nan nan nan nan nan nan nan nan nan nan nan nan nan nan nan nan nan nan nan nan nan nan nan nan nan nan nan nan nan nan nan nan nan nan nan nan nan 0 0 nan
nan nan nan nan nan nan nan nan nan nan nan nan nan nan nan nan nan nan nan nan nan nan nan nan nan nan nan nan nan nan nan nan nan nan nan nan nan nan nan nan nan nan nan nan nan nan 0 nan nan nan nan nan nan nan nan nan nan nan nan nan nan 0 0 0 0 0 0 0 0 0 1 1 nan nan nan nan nan nan 0 1 1 1 1 nan nan nan
nan nan nan nan nan nan nan nan nan nan nan nan nan nan nan nan nan nan nan nan nan nan nan nan nan nan nan nan nan nan nan nan nan nan nan nan nan nan nan nan nan nan nan nan nan nan nan 0 0 nan nan nan nan nan nan nan nan nan nan nan nan nan 0 1 1 2 2 3 3 3 5 7 6 6 3 1 1 1 1 2 2 4 3 0 0 nan
nan nan nan nan nan nan nan nan nan nan nan nan nan nan nan nan nan nan nan nan nan nan nan nan nan nan nan nan nan nan nan nan nan nan nan nan nan nan nan nan nan nan nan nan nan nan nan nan nan nan nan nan nan nan nan nan nan nan 0 1 1 1 1 2 2 3 4 7 7 7 9 6 4 4 1 nan nan nan nan nan nan nan nan nan nan nan
nan nan nan nan nan nan nan nan nan nan nan nan nan nan nan nan nan nan nan nan nan nan nan nan nan nan nan nan nan nan nan nan nan nan nan nan nan nan nan nan nan nan nan nan nan nan nan nan nan nan nan nan nan nan nan nan nan nan nan nan nan 1 2 0 0 1 3 5 4 4 3 0 nan nan nan nan nan nan nan nan nan nan nan nan nan nan
nan nan nan nan nan nan nan nan nan nan nan nan nan nan nan nan nan nan nan nan nan nan nan nan nan nan nan nan nan nan nan nan nan nan nan nan nan nan nan nan nan nan nan nan nan nan nan nan nan nan nan nan nan nan nan nan nan nan nan nan nan nan nan nan nan nan nan 0 0 0 nan nan nan nan nan nan nan nan nan nan nan nan nan nan nan nan
nan nan nan nan nan nan nan nan nan nan nan nan nan nan nan nan nan nan nan nan nan nan nan nan nan nan nan nan nan nan nan nan nan nan nan nan nan nan nan nan nan nan nan nan nan nan nan nan nan nan nan nan nan nan nan nan nan nan nan nan nan nan nan nan nan nan nan nan nan nan nan nan nan nan nan nan nan nan nan nan nan nan nan nan nan nan
nan nan nan nan nan nan nan nan nan nan nan nan nan nan nan nan nan nan nan nan nan nan nan nan nan nan nan nan nan nan nan nan nan nan nan nan nan nan nan nan nan nan nan nan nan nan nan nan nan nan nan nan nan nan nan nan nan nan nan nan nan nan nan nan nan nan nan nan nan nan nan nan nan nan nan nan nan nan nan nan nan nan nan nan nan nan
nan nan nan nan nan nan nan nan nan nan nan nan nan nan nan nan nan nan nan nan nan nan nan nan nan nan nan nan nan nan nan nan nan nan nan nan nan nan nan nan nan nan nan nan nan nan nan nan nan nan nan nan nan nan nan nan nan nan nan nan nan nan nan nan nan nan nan nan nan nan nan nan nan nan nan nan nan nan nan nan nan nan nan nan nan nan
nan nan nan nan nan nan nan nan nan nan nan nan nan nan nan nan nan nan nan nan nan nan nan nan nan nan nan nan nan nan nan nan nan nan nan nan nan nan nan nan nan nan nan nan nan nan nan nan nan nan nan nan nan nan nan nan nan nan nan nan nan nan nan nan nan nan nan nan nan nan nan nan nan nan nan nan nan nan nan nan nan nan nan nan nan nan
nan nan nan nan nan nan nan nan nan nan nan nan nan nan nan nan nan nan nan nan nan nan nan nan nan nan nan nan nan nan nan nan nan nan nan nan nan nan nan nan nan nan nan nan nan nan nan nan nan nan nan nan nan nan nan nan nan nan nan nan nan nan nan nan nan nan nan nan nan nan nan nan nan nan nan nan nan nan nan nan nan nan nan nan nan nan
nan nan nan nan nan nan nan nan nan nan nan nan nan nan nan nan nan nan nan nan nan nan nan nan nan nan nan nan nan nan nan nan nan nan nan nan nan nan nan nan nan nan nan nan nan nan nan nan nan nan nan nan nan nan nan nan nan nan nan nan nan nan nan nan nan nan nan nan nan nan nan nan nan nan nan nan nan nan nan nan nan nan nan nan nan nan
nan nan nan nan nan nan nan nan nan nan nan nan nan nan nan nan nan nan nan nan nan nan nan nan nan nan nan nan nan nan nan nan nan nan nan nan nan nan nan nan nan nan nan nan nan nan nan nan nan nan nan nan nan nan nan nan nan nan nan nan nan nan nan nan nan nan nan nan nan nan nan nan nan nan nan nan nan nan nan nan nan nan nan nan nan nan
nan nan nan nan nan nan nan nan nan nan nan nan nan nan nan nan nan nan nan nan nan nan nan nan nan nan nan nan nan nan nan nan nan nan nan nan nan nan nan nan nan nan nan nan nan nan nan nan nan nan nan nan nan nan nan nan nan nan nan nan nan nan nan nan nan nan nan nan nan nan nan nan nan nan nan nan nan nan nan nan nan nan nan nan nan nan
nan nan nan nan nan nan nan nan nan nan nan nan nan nan nan nan nan nan nan nan nan nan nan nan nan nan nan nan nan nan nan nan nan nan nan nan nan nan nan nan nan nan nan nan nan nan nan nan nan nan nan nan nan nan nan nan nan nan nan nan nan nan nan nan nan nan nan nan nan nan nan nan nan nan nan nan nan nan nan nan nan nan nan nan nan nan
nan nan nan nan nan nan nan nan nan nan nan nan nan nan nan nan nan nan nan nan nan nan nan nan nan nan nan nan nan nan nan nan nan nan nan nan nan nan nan nan nan nan nan nan nan nan nan nan nan nan nan nan nan nan nan nan nan nan nan nan nan nan nan nan nan nan nan nan nan nan nan nan nan nan nan nan nan nan nan nan nan nan nan nan nan nan
nan nan nan nan nan nan nan nan nan nan nan nan nan nan nan nan nan nan nan nan nan nan nan nan nan nan nan nan nan nan nan nan nan nan nan nan nan nan nan nan nan nan nan nan nan nan nan nan nan nan nan nan nan nan nan nan nan nan nan nan nan nan nan nan nan nan nan nan nan nan nan nan nan nan nan nan nan nan nan nan nan nan nan nan nan nan
nan nan nan nan nan nan nan nan nan nan nan nan nan nan nan nan nan nan nan nan nan nan nan nan nan nan nan nan nan nan nan nan nan nan nan nan nan nan nan nan nan nan nan nan nan nan nan nan nan nan nan nan nan nan nan nan nan nan nan nan nan nan nan nan nan nan nan nan nan nan nan nan nan nan nan nan nan nan nan nan nan nan nan nan nan nan
nan nan nan nan nan nan nan nan nan nan nan nan nan nan nan nan nan nan nan nan nan nan nan nan nan nan nan nan nan nan nan nan nan nan nan nan nan nan nan nan nan nan nan nan nan nan nan nan nan nan nan nan nan nan nan nan nan nan nan nan nan nan nan nan nan nan nan nan nan nan nan nan nan nan nan nan nan nan nan nan nan nan nan nan nan nan
nan nan nan nan nan nan nan nan nan nan nan nan nan nan nan nan nan nan nan nan nan nan nan nan nan nan nan nan nan nan nan nan nan nan nan nan nan nan nan nan nan nan nan nan nan nan nan nan nan nan nan nan nan nan nan nan nan nan nan nan nan nan nan nan nan nan nan nan nan nan nan nan nan nan nan nan nan nan nan nan nan nan nan nan nan nan
nan nan nan nan nan nan nan nan nan nan nan nan nan nan nan nan nan nan nan nan nan nan nan nan nan nan nan nan nan nan nan nan nan nan nan nan nan nan nan nan nan nan nan nan nan nan nan nan nan nan nan nan nan nan nan nan nan nan nan nan nan nan nan nan nan nan nan nan nan nan nan nan nan nan nan nan nan nan nan nan nan nan nan nan nan nan
nan nan nan nan nan nan nan nan nan nan nan nan nan nan nan nan nan nan nan nan nan nan nan nan nan nan nan nan nan nan nan nan nan nan nan nan nan nan nan nan nan nan nan nan nan nan nan nan nan nan nan nan nan nan nan nan nan nan nan nan nan nan nan nan nan nan nan nan nan nan nan nan nan nan nan nan nan nan nan nan nan nan nan nan nan nan
nan nan nan nan nan nan nan nan nan nan nan nan nan nan nan nan nan nan nan nan nan nan nan nan nan nan nan nan nan nan nan nan nan nan nan nan nan nan nan nan nan nan nan nan nan nan nan nan nan nan nan nan nan nan nan nan nan nan nan nan nan nan nan nan nan nan nan nan nan nan nan nan nan nan nan nan nan nan nan nan nan nan nan nan nan nan
nan nan nan nan nan nan nan nan nan nan nan nan nan nan nan nan nan nan nan nan nan nan nan nan nan nan nan nan nan nan nan nan nan nan nan nan nan nan nan nan nan nan nan nan nan nan nan nan nan nan nan nan nan nan nan nan nan nan nan nan nan nan nan nan nan nan nan nan nan nan nan nan nan nan nan nan nan nan nan nan nan nan nan nan nan nan
nan nan nan nan nan nan nan nan nan nan nan nan nan nan nan nan nan nan nan nan nan nan nan nan nan nan nan nan nan nan nan nan nan nan nan nan nan nan nan nan nan nan nan nan nan nan nan nan nan nan nan nan nan nan nan nan nan nan nan nan nan nan nan nan nan nan nan nan nan nan nan nan nan nan nan nan nan nan nan nan nan nan nan nan nan nan